Terminal Aerodrome Forecast
Issued by NWS

Home | Current Version | Previous Version | Text Only | Print | Product List | Glossary On
Versions: 1 2 3 4 5 6 7 8 9 10 11 12 13 14 15 16 17 18 19 20 21 22 23 24 25 26 27 28 29 30 31 32 33 34 35 36 37 38 39 40 41 42 43 44 45 46 47 48 49 50
000
FTUS46 KPQR 202343
TAFONP
TAF
KONP 202343Z 2100/2124 18010G20KT P6SM -SHRA SCT012 BKN024 OVC045
     FM210400 17011KT P6SM -SHRA SCT030 BKN050
     FM211400 12006KT P6SM BKN040 BKN070
     FM211600 15010KT P6SM SCT025 OVC045
     FM211800 18020G30KT 4SM -RA OVC025=

USA.gov is the U.S. government's official web portal to all federal, state and local government web resources and services.